Regional Weather Roundup
Issued by NWS

Home | Current Version | Previous Version | Text Only | Print | Product List | Glossary On
Versions: 1 2 3 4 5 6 7 8 9 10 11 12 13 14 15 16 17 18 19 20 21 22 23 24 25 26 27 28 29 30 31 32 33 34 35 36 37 38 39 40 41 42 43 44 45 46 47 48 49 50
564
ASUS46 KSTO 201915
RWRCA

NORTHERN AND CENTRAL CA REGIONAL WEATHER ROUNDUP
NATIONAL WEATHER SERVICE SACRAMENTO CA
1100 AM PST SAT JAN 20 2018

NOTE: FAIR INDICATES FEW OR NO CLOUDS BELOW 12,000 FEET WITH NO
SIGNIFICANT WEATHER AND/OR OBSTRUCTIONS TO VISIBILITY.

CAZ001-003-202000-
NORTHWEST AREA

CITY           SKY/WX    TMP DP  RH WIND       PRES   REMARKS
CRESCENT CITY  MOSUNNY   51  42  71 S8        30.27R
$$

CAZ006-505>513-202000-
BAY AREA

CITY           SKY/WX    TMP DP  RH WIND       PRES   REMARKS
SANTA ROSA     SUNNY     50  39  66 CALM      30.19S
SAN RAFAEL     N/A       MM  MM  MM MISG
NAPA           SUNNY     47  38  71 W5        30.21S
CONCORD        SUNNY     52  36  54 W7        30.20S
OAKLAND CITY   N/A       MM  MM  MM MISG
OAKLAND        MOSUNNY   51  36  56 NW8       30.21S
SAN FRAN CITY  N/A       54  MM  51 MISG
SAN FRAN ARPT  SUNNY     51  40  65 NE5       30.21R
LIVERMORE      SUNNY     48  37  65 VRB3      30.19S
HAYWARD        SUNNY     51  36  56 W6        30.20S
REDWOOD CITY   N/A       52  MM  68 MISG
MOFFETT ARPT   SUNNY     49  40  71 NE7       30.22R
SAN JOSE ARPT  MOSUNNY   52  36  54 NW9       30.21R
$$
CAZ034-037-514>518-202000-
CENTRAL COAST

CITY           SKY/WX    TMP DP  RH WIND       PRES   REMARKS
WATSONVILLE    SUNNY     49  40  71 CALM      30.21R
SALINAS        SUNNY     53  38  56 NW7       30.20S
MONTEREY       MOSUNNY   53  41  63 W8        30.21S
SAN LUIS OBISP SUNNY     56  35  45 N8        30.18S
SANTA MARIA    MOSUNNY   55  40  56 NW7       30.18F
$$
CAZ015-016-202000-
NORTHERN SACRAMENTO VALLEY

CITY           SKY/WX    TMP DP  RH WIND       PRES   REMARKS
REDDING        SUNNY     52  30  43 N12       30.18S
RED BLUFF      SUNNY     51  34  52 NW12      30.19S
OROVILLE       SUNNY     49  35  58 NW9       30.17S
$$
CAZ016>018-202000-
SOUTHERN SACRAMENTO VALLEY

CITY           SKY/WX    TMP DP  RH WIND       PRES   REMARKS
AUBURN         SUNNY     48  32  53 W3        30.12R
BEALE AFB      SUNNY     47  36  65 W6        30.15R
LINCOLN        FAIR     N/A N/A N/A N7        30.16S
MARYSVILLE     SUNNY     50  36  58 NW13      30.17S
SAC INTL ARPT  SUNNY     49  40  71 NW13      30.17R
MATHER AIRPORT SUNNY     46  37  71 NW9       30.16S
DOWNTOWN SAC   N/A       49  MM  MM MISG
SAC EXEC ARPT  SUNNY     50  39  66 NW7       30.17S
VACAVILLE      SUNNY     56  32  40 NW7       30.19R
TRAVIS AFB     SUNNY     53  35  50 W5          N/A
$$
CAZ019>021-202000-
SAN JOAQUIN VALLEY

CITY           SKY/WX    TMP DP  RH WIND       PRES   REMARKS
STOCKTON       SUNNY     52  36  54 NW18      30.17R
MODESTO        SUNNY     51  36  56 NW13      30.16R
MERCED         SUNNY     50  33  52 NW13      30.15S
LEMOORE        MOSUNNY   49  40  71 VRB3      30.19R
FRESNO         MOSUNNY   46  38  73 NE6       30.18R
HANFORD        SUNNY     51  39  63 NW12      30.19R
PORTERVILLE    CLOUDY    45  39  79 SW3       30.20R
BAKERSFIELD    PTSUNNY   50  40  68 VRB5      30.18F
$$
CAZ011-012-071-202000-
NORTHERN MOUNTAINS

CITY           SKY/WX    TMP DP  RH WIND       PRES   REMARKS
YREKA          SUNNY     36  31  82 CALM      30.21R
MOUNT SHASTA   SUNNY     37  26  64 NW5       30.14S WCI  33
ALTURAS        CLOUDY    26  25  96 CALM      30.13S
$$
CAZ011-012-071-202000-
SIERRA NEVADA MTNS

CITY           SKY/WX    TMP DP  RH WIND       PRES   REMARKS
BLUE CANYON    SUNNY     34  18  52 VRB6      30.06R WCI  29
TRUCKEE        MOSUNNY   23  21  93 CALM      30.07S
TAHOE VLY ARPT SUNNY     30  15  53 NE6       30.03S WCI  24
MAMMOTH LAKES  CLOUDY    28  13  54 NW9       30.01S WCI  19
$$




USA.gov is the U.S. government's official web portal to all federal, state and local government web resources and services.